Wind_Speed
19 18 16 15 13 11 11 12 12 10 10 11 13 15 16 15 14 12 10 9 9 8 8 8 8 7 8 8 9 10 11 12 13 13 13 13 13 13 13 13 13 13 13 12 11 10 9 8 7
20 19 18 16 14 12 13 14 13 12 12 13 15 16 16 15 14 12 11 11 10 9 9 9 9 9 9 10 10 11 12 13 13 14 14 14 14 14 14 14 14 14 13 13 12 11 10 9 8
20 19 19 16 15 15 16 15 15 14 13 15 18 19 18 16 14 13 13 12 11 10 10 10 10 10 10 11 12 12 13 14 14 15 15 16 15 15 15 15 15 15 14 13 13 12 11 9 8
20 20 18 16 15 17 18 18 17 15 14 16 18 21 20 17 15 14 13 13 12 11 11 10 10 11 12 12 13 14 14 15 15 16 17 17 16 16 16 16 16 16 15 14 13 13 12 10 9
20 20 18 16 17 19 20 18 17 17 16 18 20 21 21 19 16 15 14 13 13 12 12 11 12 12 13 13 14 15 15 16 17 17 18 18 18 17 17 17 17 17 16 15 14 14 13 11 10
20 19 18 17 19 21 22 21 19 18 18 19 21 23 22 20 18 17 16 15 15 14 14 13 13 14 14 14 15 16 16 17 17 18 18 18 18 18 18 18 18 17 17 16 15 15 14 13 11
19 18 17 18 20 23 23 21 19 19 20 22 24 25 24 22 20 19 18 17 16 16 16 15 16 15 15 16 16 17 18 18 19 19 19 20 20 20 19 19 19 18 18 17 16 16 15 14 13
19 18 18 19 22 24 23 20 19 20 22 24 26 26 26 26 23 21 20 18 18 18 18 17 18 16 17 17 17 18 18 18 19 20 20 21 21 21 21 20 20 19 19 18 17 17 16 15 14
17 17 19 22 23 24 23 22 21 22 23 25 27 28 28 27 26 24 22 20 19 20 20 18 18 18 18 18 18 18 19 19 19 20 20 21 22 22 22 22 21 21 20 19 18 18 17 16 15
16 18 21 24 25 24 23 22 22 23 25 26 28 28 28 28 27 25 22 21 21 22 21 20 19 19 19 19 20 19 19 19 20 21 21 22 22 22 22 23 23 22 22 21 20 19 18 17 17
17 20 22 25 24 24 22 22 23 24 25 26 27 27 28 28 27 25 22 22 22 24 24 22 20 21 21 21 21 20 20 20 21 22 22 23 23 23 23 24 24 23 23 22 21 20 19 19 18
18 20 22 23 23 23 23 23 24 24 25 26 26 27 27 27 26 25 24 23 23 23 25 26 23 22 22 22 21 22 21 21 20 21 22 23 23 23 22 23 24 23 23 22 21 21 20 20 19
18 20 20 19 19 20 21 23 24 25 25 26 25 25 25 26 26 26 26 25 25 25 24 25 25 23 23 23 23 23 23 23 22 21 22 22 23 23 23 23 23 24 24 23 21 20 21 21 20
17 18 17 17 17 18 19 20 21 23 25 25 25 25 25 26 26 27 28 28 26 26 26 26 25 24 24 25 24 23 24 24 22 22 23 23 23 23 22 22 22 23 23 22 21 20 20 20 20
13 13 13 14 14 14 15 16 19 21 23 24 24 26 26 26 27 28 28 28 28 28 28 27 27 25 25 26 25 24 25 24 24 24 24 24 24 25 24 23 23 22 22 22 22 20 20 20 20
10 10 10 10 11 12 14 14 16 18 20 21 23 24 25 25 26 27 28 29 29 29 30 28 28 27 26 26 26 26 26 26 25 26 25 25 25 24 23 23 23 22 22 23 23 21 21 21 21
10 10 10 10 10 11 12 13 14 16 18 19 21 22 23 24 26 27 28 29 30 30 30 28 29 29 29 28 28 28 27 27 26 25 25 25 26 25 24 24 24 24 24 24 24 24 23 22 22
10 10 10 9 10 12 13 15 16 17 19 20 21 21 22 24 25 26 28 29 30 31 31 30 30 29 29 30 29 28 26 26 25 26 25 25 26 25 26 25 25 24 24 24 25 26 25 24 24
11 10 9 9 11 14 15 17 19 20 21 22 22 23 23 23 25 27 28 29 30 31 31 31 31 32 30 29 30 28 28 27 25 25 26 25 24 25 25 26 26 26 26 25 25 26 26 25 25
11 11 10 11 12 15 18 21 21 22 23 23 23 23 24 25 25 27 28 29 29 29 30 30 30 31 31 30 29 29 29 27 27 25 25 24 24 23 26 27 27 26 26 27 26 26 26 27 26
11 11 11 13 15 18 20 22 24 24 23 24 23 23 22 23 24 26 27 28 28 29 30 30 29 29 30 30 30 29 29 28 26 25 25 24 23 22 23 25 25 24 23 25 26 27 26 26 26
11 11 12 14 17 19 20 23 23 24 23 23 22 21 20 20 22 23 25 26 27 28 28 29 29 29 29 30 29 29 28 27 26 24 23 22 23 24 24 24 25 24 25 25 25 25 27 27 27
12 11 13 15 16 17 19 22 22 22 21 21 23 22 21 21 22 24 25 25 27 28 28 28 28 28 29 29 29 30 30 29 28 27 25 23 24 25 24 24 24 25 26 26 26 27 28 28 29
13 14 15 15 16 16 17 21 21 21 22 23 25 24 23 22 22 23 24 24 25 26 27 26 28 28 28 28 29 29 29 29 28 27 26 26 26 25 24 25 25 25 26 27 28 29 29 28 29
14 15 15 14 15 15 16 19 19 19 20 21 21 20 21 23 22 22 22 22 23 24 24 25 26 27 27 28 27 28 28 28 29 28 28 27 27 27 25 25 25 25 25 26 28 29 30 30 31
13 14 15 15 14 14 15 16 16 18 20 20 18 18 19 19 19 19 19 21 22 24 24 25 25 25 26 27 28 28 29 30 29 29 28 28 27 27 28 28 27 26 25 26 27 29 30 31 32
13 14 14 15 14 14 14 15 17 18 17 16 16 16 17 16 16 18 19 21 22 24 24 25 25 26 26 27 27 28 28 28 28 28 27 26 26 26 26 27 27 26 25 26 27 28 29 29 30
13 12 13 14 14 15 14 16 18 17 15 15 16 16 16 16 17 18 19 20 21 22 23 24 25 25 26 26 26 26 27 27 27 27 27 26 24 24 25 25 26 25 24 23 24 26 27 28 29
12 13 13 13 14 15 15 16 17 16 15 16 16 15 16 17 17 18 19 20 21 21 21 23 22 23 24 24 25 26 26 26 26 26 25 25 25 25 25 24 24 24 24 23 24 25 26 27 28
11 11 11 12 14 14 15 16 16 16 16 16 16 16 16 17 17 18 19 20 21 21 21 22 22 23 23 24 24 25 25 26 26 25 25 25 25 24 24 24 24 24 24 24 24 24 25 26 27
Wind_Direction
246 245 243 240 233 223 214 215 221 228 246 262 273 281 284 288 293 296 291 288 285 272 269 266 262 261 261 260 259 256 253 254 256 257 259 264 269 274 278 281 284 285 285 283 280 278 275 271 266
243 242 240 235 225 213 211 218 222 226 240 257 267 275 280 287 289 287 282 281 280 272 269 266 263 262 262 261 257 257 256 256 258 258 260 263 267 271 275 279 282 284 283 281 279 277 275 272 267
241 239 236 231 217 208 212 217 224 231 244 259 268 271 277 283 283 282 278 276 275 272 270 268 264 261 260 260 258 258 257 257 257 258 261 263 265 267 270 275 278 281 280 278 277 276 274 272 267
240 238 234 226 211 206 212 217 221 230 244 255 264 271 276 279 282 280 277 274 272 268 269 268 266 262 260 260 259 257 257 256 256 257 260 262 263 265 268 271 274 276 276 274 273 272 272 271 267
238 236 231 219 206 204 211 220 227 235 242 254 262 267 273 276 278 277 275 272 270 267 266 265 267 263 260 259 258 257 255 255 255 257 259 260 261 264 266 268 270 272 272 270 269 268 269 268 266
237 234 227 212 203 204 210 217 223 233 242 253 260 265 270 274 276 278 275 271 269 264 264 266 265 261 260 259 259 259 256 255 255 257 258 258 260 263 266 267 267 269 269 267 265 265 264 265 264
235 229 218 210 203 206 210 217 224 235 243 252 259 264 268 273 275 275 272 272 270 265 263 264 266 261 261 262 260 259 257 256 257 258 258 259 260 262 264 266 265 266 266 264 262 261 262 262 260
231 224 211 205 204 207 211 218 228 238 245 250 256 262 268 272 273 271 269 269 268 265 263 263 263 262 262 260 259 258 258 258 258 258 258 258 259 260 262 264 263 263 263 261 259 259 260 260 258
224 216 207 204 206 209 212 218 227 235 243 250 255 260 265 268 269 268 265 266 264 263 264 263 261 260 260 258 258 257 257 257 258 258 259 259 259 259 260 262 263 263 261 259 257 256 257 257 256
217 206 206 206 209 212 215 221 229 237 243 250 255 260 263 264 265 263 263 262 258 258 260 261 263 259 258 259 258 257 257 258 257 258 257 260 260 259 261 261 261 261 260 259 257 255 255 254 254
214 208 208 209 213 215 218 225 233 241 245 252 256 259 260 260 260 262 263 262 257 255 256 257 258 256 256 259 258 257 258 257 258 261 261 259 262 262 261 261 261 261 260 258 257 255 254 252 253
215 214 215 217 220 220 222 229 237 245 249 254 259 258 257 258 260 262 262 263 259 257 256 258 259 258 258 259 258 258 259 259 261 261 262 261 260 263 263 260 259 259 260 258 256 255 255 251 251
218 219 220 224 229 230 231 235 239 245 251 254 257 259 258 261 262 264 263 262 262 261 261 261 262 260 259 257 260 260 260 261 264 261 260 260 260 261 260 257 258 257 256 255 253 253 254 253 253
227 224 224 228 233 237 237 238 243 246 250 253 254 256 258 260 261 262 265 263 261 261 263 264 260 259 263 263 261 259 258 258 260 261 262 259 257 258 259 257 257 258 254 252 250 252 252 252 251
231 227 223 227 235 238 239 243 246 249 252 254 255 257 260 262 261 260 262 264 262 261 261 263 263 263 263 261 259 260 260 259 259 260 260 257 256 255 257 256 257 258 255 254 251 251 250 250 251
221 220 219 227 238 244 250 251 254 259 260 260 261 261 263 264 263 263 262 263 263 263 262 261 262 263 265 261 257 257 260 261 260 258 259 256 256 255 253 254 254 254 252 253 251 252 251 248 250
212 212 213 227 241 251 258 265 269 268 270 270 268 266 265 265 266 265 264 263 263 264 265 265 264 263 264 263 259 256 258 259 257 257 258 255 255 255 254 251 253 253 251 251 252 252 252 249 251
214 219 222 236 249 258 267 275 278 278 277 277 275 274 271 270 270 269 266 266 266 265 265 265 264 266 264 264 262 259 255 255 255 256 256 255 253 252 250 249 250 251 251 250 251 253 251 251 251
217 226 234 248 254 258 267 272 274 278 278 277 278 276 275 274 272 270 269 269 268 264 263 263 265 266 265 263 264 264 262 259 259 254 257 256 252 249 249 253 254 254 254 253 255 254 251 251 251
232 238 244 248 257 260 261 266 272 275 274 275 277 276 273 273 272 272 271 271 269 268 266 265 266 266 266 267 269 267 266 261 259 256 255 253 248 251 252 252 254 257 256 255 255 254 254 253 252
237 247 252 256 255 260 264 268 272 275 276 275 276 275 274 274 275 274 272 272 270 269 268 266 268 268 267 268 268 270 270 268 267 261 258 257 255 255 258 254 253 254 256 256 255 254 254 253 253
245 253 261 267 265 263 267 272 274 275 274 275 278 277 275 274 277 276 272 271 270 268 268 267 267 268 268 268 269 270 270 270 271 268 264 264 262 259 260 261 259 257 258 258 256 254 253 252 252
258 260 268 269 266 267 266 271 276 275 274 276 278 277 278 277 278 279 277 273 271 270 269 267 267 267 267 266 267 269 268 269 270 269 266 265 264 262 264 264 262 261 262 261 259 258 255 254 254
263 266 272 272 268 269 269 273 278 279 279 279 278 274 276 277 279 280 278 276 274 271 268 268 265 265 265 266 266 267 266 268 269 267 267 266 265 263 263 264 263 262 264 261 259 260 259 259 258
268 271 276 277 272 275 281 282 288 293 291 291 286 284 281 278 280 281 278 278 276 274 273 271 268 266 267 268 268 268 267 268 269 269 270 267 266 265 266 266 265 264 264 261 260 260 259 259 259
272 274 278 282 283 283 287 292 299 302 298 295 295 291 287 284 283 279 279 279 277 274 274 273 271 269 270 270 270 269 268 267 268 268 268 267 267 266 264 265 266 266 266 263 261 262 260 259 260
275 277 282 284 288 291 292 294 300 309 307 302 298 296 291 292 288 283 284 282 279 277 275 274 275 274 273 271 270 269 269 268 269 269 268 268 267 265 264 264 266 266 265 263 264 263 261 261 261
275 278 278 284 291 294 294 300 306 308 306 304 303 301 297 297 294 288 287 285 285 283 278 277 277 276 275 272 270 270 270 269 269 267 266 267 266 265 265 266 267 266 264 264 265 263 261 262 263
274 274 280 291 297 299 304 306 311 309 304 307 304 301 298 296 296 291 289 289 289 286 283 282 281 279 276 274 271 271 270 270 269 267 265 264 266 265 265 266 265 263 263 265 265 265 264 264 265
274 280 284 294 300 304 308 311 316 314 309 307 305 302 302 299 296 293 291 291 290 287 287 286 284 283 280 277 273 272 271 270 269 267 265 264 264 264 263 263 264 263 263 265 266 266 266 267 266
Height
5885 5886 5887 5890 5892 5893 5892 5893 5892 5892 5892 5893 5893 5893 5894 5895 5897 5899 5896 5895 5895 5895 5895 5895 5895 5896 5896 5897 5898 5899 5899 5900 5900 5901 5901 5901 5901 5901 5901 5901 5901 5901 5900 5900 5899 5899 5898 5898 5897
5881 5883 5885 5887 5888 5890 5890 5890 5890 5890 5890 5891 5891 5891 5892 5893 5894 5894 5893 5893 5893 5893 5893 5893 5894 5894 5895 5895 5896 5897 5898 5898 5899 5899 5899 5899 5900 5900 5900 5900 5900 5899 5899 5899 5898 5897 5897 5897 5896
5877 5879 5881 5883 5885 5887 5887 5887 5887 5887 5887 5888 5889 5888 5889 5891 5891 5891 5891 5891 5891 5891 5891 5891 5891 5892 5893 5893 5894 5895 5895 5896 5896 5897 5897 5897 5898 5898 5898 5898 5898 5898 5897 5897 5897 5896 5896 5895 5895
5873 5875 5878 5881 5882 5883 5883 5883 5882 5882 5884 5885 5886 5885 5886 5888 5889 5889 5888 5888 5888 5888 5889 5889 5889 5890 5890 5891 5892 5892 5893 5893 5894 5894 5895 5895 5895 5896 5896 5896 5896 5896 5896 5895 5895 5894 5894 5894 5894
5869 5871 5874 5876 5878 5879 5880 5879 5879 5879 5880 5882 5883 5882 5882 5884 5885 5885 5885 5885 5885 5885 5886 5886 5886 5887 5888 5888 5889 5889 5890 5890 5891 5892 5892 5892 5893 5893 5893 5893 5893 5893 5893 5893 5893 5893 5892 5892 5892
5865 5867 5870 5872 5874 5875 5875 5875 5875 5876 5877 5878 5879 5879 5879 5881 5882 5882 5882 5882 5882 5883 5883 5883 5884 5884 5885 5885 5886 5886 5887 5887 5888 5888 5889 5889 5890 5890 5890 5891 5891 5891 5891 5891 5891 5890 5890 5890 5890
5862 5864 5866 5869 5870 5870 5871 5871 5872 5873 5873 5875 5875 5875 5875 5877 5879 5879 5879 5879 5879 5880 5880 5881 5881 5882 5882 5882 5883 5883 5883 5883 5884 5885 5885 5886 5886 5887 5887 5887 5887 5888 5888 5888 5888 5888 5888 5888 5888
5857 5860 5862 5864 5865 5866 5867 5868 5869 5870 5870 5872 5872 5872 5872 5873 5874 5875 5875 5876 5876 5876 5877 5877 5877 5878 5879 5879 5879 5879 5880 5880 5880 5881 5881 5882 5882 5883 5883 5884 5884 5884 5884 5885 5885 5885 5885 5885 5886
5853 5857 5858 5859 5860 5861 5862 5864 5865 5866 5867 5868 5868 5869 5869 5869 5870 5871 5872 5872 5872 5872 5873 5873 5874 5874 5874 5874 5875 5875 5875 5876 5876 5877 5877 5878 5878 5878 5879 5880 5880 5880 5881 5881 5881 5882 5882 5882 5883
5849 5852 5853 5855 5856 5857 5858 5860 5861 5862 5863 5864 5865 5865 5865 5865 5866 5866 5867 5868 5869 5869 5869 5869 5869 5869 5870 5870 5870 5871 5871 5871 5872 5872 5873 5873 5873 5874 5875 5875 5875 5876 5876 5877 5877 5878 5879 5879 5880
5845 5848 5849 5850 5851 5853 5854 5856 5857 5858 5859 5860 5861 5862 5861 5861 5861 5861 5862 5864 5864 5865 5864 5864 5865 5865 5865 5865 5865 5866 5867 5867 5867 5867 5868 5868 5869 5869 5870 5870 5870 5871 5872 5872 5873 5873 5874 5875 5876
5842 5844 5845 5847 5848 5849 5851 5852 5853 5854 5855 5857 5857 5857 5856 5856 5856 5856 5857 5859 5860 5860 5860 5860 5860 5860 5860 5860 5860 5861 5862 5862 5862 5862 5862 5863 5864 5864 5865 5865 5866 5866 5867 5868 5868 5869 5870 5871 5872
5839 5841 5842 5844 5845 5847 5848 5849 5849 5850 5851 5852 5852 5852 5852 5852 5852 5852 5852 5853 5854 5855 5854 5854 5855 5855 5855 5855 5855 5855 5856 5857 5857 5857 5857 5858 5859 5859 5860 5860 5860 5861 5862 5863 5863 5864 5865 5866 5868
5836 5838 5839 5841 5842 5843 5844 5845 5846 5846 5846 5847 5847 5847 5847 5847 5847 5847 5847 5847 5848 5849 5849 5849 5849 5850 5850 5850 5849 5849 5850 5851 5851 5851 5851 5852 5853 5854 5854 5855 5855 5856 5856 5857 5858 5859 5860 5862 5863
5833 5835 5836 5837 5838 5839 5840 5841 5841 5841 5841 5841 5841 5841 5842 5842 5842 5842 5841 5841 5841 5842 5843 5844 5844 5845 5846 5845 5844 5843 5844 5845 5846 5846 5845 5846 5847 5848 5849 5850 5850 5850 5851 5852 5853 5855 5856 5857 5858
5831 5833 5833 5834 5834 5835 5837 5837 5836 5836 5836 5836 5836 5836 5836 5835 5835 5836 5836 5836 5835 5836 5836 5837 5838 5839 5839 5839 5839 5838 5838 5839 5840 5840 5840 5841 5841 5842 5843 5844 5845 5845 5846 5847 5849 5850 5851 5852 5853
5828 5829 5830 5830 5831 5831 5831 5831 5832 5831 5831 5831 5831 5831 5831 5830 5830 5830 5830 5830 5830 5830 5830 5831 5831 5831 5832 5833 5833 5832 5832 5833 5834 5833 5833 5834 5835 5836 5837 5839 5839 5840 5841 5842 5843 5845 5846 5847 5848
5826 5826 5826 5827 5827 5827 5827 5826 5827 5827 5827 5826 5826 5826 5825 5825 5825 5824 5824 5824 5824 5824 5824 5825 5825 5822 5823 5824 5824 5824 5824 5826 5826 5827 5827 5827 5829 5830 5830 5832 5833 5834 5835 5836 5838 5839 5840 5841 5842
5822 5823 5823 5824 5823 5823 5823 5822 5822 5822 5822 5821 5821 5820 5819 5819 5818 5818 5817 5817 5817 5817 5817 5818 5818 5817 5815 5816 5816 5816 5816 5819 5820 5821 5821 5822 5822 5822 5824 5826 5827 5828 5829 5831 5832 5833 5834 5835 5836
5819 5819 5820 5820 5820 5819 5818 5818 5818 5817 5817 5816 5816 5814 5814 5813 5812 5812 5811 5810 5809 5810 5810 5811 5812 5811 5810 5809 5809 5811 5810 5812 5814 5814 5815 5815 5815 5816 5818 5820 5821 5822 5823 5824 5825 5826 5827 5828 5829
5816 5816 5816 5816 5816 5816 5815 5814 5813 5812 5812 5811 5810 5808 5807 5807 5806 5806 5805 5804 5803 5804 5804 5804 5804 5805 5805 5804 5804 5805 5806 5806 5807 5807 5808 5809 5810 5811 5811 5812 5814 5815 5816 5817 5818 5819 5821 5822 5823
5812 5813 5813 5813 5812 5811 5811 5809 5809 5807 5806 5805 5804 5803 5802 5801 5801 5800 5799 5798 5798 5798 5798 5798 5798 5798 5799 5799 5799 5800 5800 5801 5801 5801 5801 5802 5804 5805 5805 5807 5808 5809 5810 5811 5811 5813 5814 5815 5816
5809 5809 5809 5809 5808 5807 5806 5805 5804 5802 5801 5800 5798 5797 5796 5796 5795 5794 5793 5793 5792 5791 5791 5792 5792 5792 5792 5793 5793 5793 5794 5795 5796 5796 5795 5796 5798 5799 5799 5800 5801 5802 5803 5804 5804 5806 5807 5808 5809
5806 5806 5805 5804 5804 5804 5802 5801 5799 5797 5796 5794 5792 5790 5790 5790 5789 5788 5787 5786 5785 5784 5784 5784 5785 5785 5785 5786 5786 5787 5788 5788 5789 5789 5789 5790 5791 5792 5792 5793 5794 5794 5795 5796 5797 5798 5799 5800 5802
5802 5802 5802 5801 5800 5799 5798 5796 5794 5792 5790 5788 5786 5784 5784 5784 5784 5782 5781 5780 5779 5778 5778 5778 5778 5778 5778 5778 5779 5780 5781 5782 5782 5782 5782 5783 5784 5785 5785 5786 5786 5787 5787 5788 5789 5790 5791 5793 5793
5798 5798 5798 5797 5796 5795 5793 5791 5790 5787 5785 5783 5781 5779 5779 5778 5777 5777 5776 5775 5774 5774 5773 5772 5772 5772 5772 5772 5772 5773 5774 5775 5775 5775 5776 5776 5777 5778 5778 5778 5779 5779 5780 5781 5781 5782 5783 5784 5785
5795 5794 5794 5793 5792 5790 5789 5787 5785 5783 5780 5778 5777 5776 5774 5773 5773 5772 5771 5770 5769 5768 5767 5766 5765 5765 5765 5765 5765 5765 5766 5767 5767 5768 5768 5768 5769 5770 5770 5770 5771 5772 5772 5773 5773 5774 5774 5775 5776
5792 5791 5791 5789 5788 5786 5785 5783 5781 5779 5777 5775 5774 5772 5771 5769 5768 5767 5766 5765 5764 5762 5761 5760 5759 5758 5758 5758 5758 5758 5758 5759 5759 5759 5760 5760 5761 5762 5762 5763 5764 5764 5764 5765 5765 5766 5766 5767 5768
5789 5788 5787 5786 5784 5783 5781 5781 5777 5775 5773 5771 5770 5768 5766 5765 5763 5762 5761 5759 5758 5756 5755 5753 5752 5751 5750 5750 5750 5751 5751 5751 5751 5751 5752 5753 5754 5754 5755 5755 5756 5756 5757 5757 5758 5758 5759 5759 5759
5785 5784 5784 5783 5782 5779 5778 5779 5774 5771 5769 5767 5765 5764 5762 5760 5758 5757 5755 5753 5752 5750 5749 5747 5746 5745 5744 5743 5743 5743 5743 5743 5743 5743 5744 5745 5746 5747 5747 5748 5748 5749 5750 5750 5750 5751 5751 5751 5752